Wahiawa, HI

7:33 PM HST on February 27, 2017 (GMT -1000)
Wheeler Army Air Field

Weather History for PHHI - March, 2013

Change the Weather History Date:

Saturday, March 23, 2013

  Actual Average Record
Temperature  
Mean Temperature 68 °F -  
Max Temperature 73 °F 74 °F 81 °F (2015)
Min Temperature 64 °F 61 °F 55 °F (1998)
Cooling Degree Days 4    
Growing Degree Days 18 (Base 50)    
Moisture  
Dew Point 63 °F    
Average Humidity 86    
Maximum Humidity 100    
Minimum Humidity 66    
Precipitation  
Precipitation 0.06 in - - ()
Sea Level Pressure  
Sea Level Pressure 29.97 in    
Wind  
Wind Speed 8 mph (NW)    
Max Wind Speed 14 mph    
Max Gust Speed 20 mph    
Visibility 10 miles    
Events Rain    
Averages and records for this station are not official NWS values.
T = Trace of Precipitation, MM = Missing Value Source: NWS Daily Summary

Daily Weather History Graph

Daily Weather History Graph

Search for Another Location

Airport or City:

Trip Planner

Search our weather history database for the weather conditions in past years. The results will help you decide how hot, cold, wet, or windy it might be!

Date:

Astronomy

Mar. 23, 2013 Rise Set
Actual Time 6:33 AM HST 6:44 PM HST
Civil Twilight 6:10 AM HST 7:06 PM HST
Nautical Twilight 5:44 AM HST 7:32 PM HST
Astronomical Twilight 5:18 AM HST 7:58 PM HST
Moon 3:43 PM HST (3/23) 3:52 AM HST (3/23)
Length of Visible Light 12h 55m
Length of Day
12h 11m
Waxing Gibbous, 86% of the Moon is Illuminated
Mar 23
Waxing Gibbous
Mar 26
Full
Apr 2
Last Quarter
Apr 9
New
Apr 18
First Quarter

Hourly Weather History & Observations

Time (HST) Temp. Dew Point Humidity Pressure Visibility Wind Dir Wind Speed Gust Speed Precip Events Conditions
12:55 AM 65.1 °F 63.3 °F 94% 29.97 in 9.0 mi NW 6.9 mph - 0.05 in   Light Drizzle
1:14 AM 64.4 °F 62.6 °F 94% 29.96 in 10.0 mi NW 10.4 mph - N/A   Clear
1:22 AM 64.4 °F 64.4 °F 100% 29.96 in 10.0 mi NW 8.1 mph - N/A   Light Drizzle
1:40 AM 64.4 °F 62.6 °F 94% 29.96 in 10.0 mi NW 8.1 mph - N/A   Clear
1:52 AM 64.4 °F 62.6 °F 94% 29.95 in 10.0 mi NW 9.2 mph - N/A   Light Drizzle
1:55 AM 65.1 °F 63.3 °F 94% 29.96 in 10.0 mi NW 6.9 mph - 0.00 in   Light Drizzle
2:11 AM 64.4 °F 62.6 °F 94% 29.96 in 10.0 mi WNW 8.1 mph - N/A Rain Light Rain
2:12 AM 64.4 °F 62.6 °F 94% 29.96 in 10.0 mi WNW 8.1 mph - N/A   Light Drizzle
2:15 AM 64.4 °F 62.6 °F 94% 29.96 in 10.0 mi WNW 6.9 mph - N/A   Partly Cloudy
2:27 AM 64.4 °F 62.6 °F 94% 29.95 in 10.0 mi NW 6.9 mph - N/A   Mostly Cloudy
2:29 AM 64.4 °F 62.6 °F 94% 29.95 in 10.0 mi NW 5.8 mph - N/A   Mostly Cloudy
2:55 AM 65.3 °F 63.5 °F 94% 29.94 in 10.0 mi WNW 6.9 mph - 0.01 in   Mostly Cloudy
2:58 AM 64.4 °F 62.6 °F 94% 29.94 in 10.0 mi WNW 5.8 mph - N/A   Mostly Cloudy
3:55 AM 65.3 °F 63.3 °F 93% 29.93 in 10.0 mi WNW 5.8 mph - N/A   Scattered Clouds
4:39 AM 64.4 °F 62.6 °F 94% 29.93 in 10.0 mi NW 6.9 mph - N/A   Partly Cloudy
4:48 AM 64.4 °F 62.6 °F 94% 29.94 in 10.0 mi NNW 6.9 mph - N/A   Mostly Cloudy
4:53 AM 66.2 °F 62.6 °F 88% 29.94 in 10.0 mi NNW 8.1 mph - N/A   Mostly Cloudy
4:55 AM 65.5 °F 63.1 °F 92% 29.94 in 10.0 mi NNW 6.9 mph - N/A   Mostly Cloudy
4:58 AM 66.2 °F 62.6 °F 88% 29.94 in 10.0 mi NNW 8.1 mph - N/A   Mostly Cloudy
5:01 AM 66.2 °F 62.6 °F 88% 29.94 in 10.0 mi NNW 8.1 mph - N/A   Mostly Cloudy
5:02 AM 66.2 °F 62.6 °F 88% 29.94 in 10.0 mi NNW 8.1 mph - N/A   Overcast
5:21 AM 66.2 °F 62.6 °F 88% 29.94 in 10.0 mi NW 9.2 mph - N/A   Mostly Cloudy
5:31 AM 64.4 °F 62.6 °F 94% 29.95 in 10.0 mi NW 8.1 mph - N/A   Overcast
5:41 AM 64.4 °F 62.6 °F 94% 29.95 in 10.0 mi NW 6.9 mph - N/A   Mostly Cloudy
5:43 AM 64.4 °F 62.6 °F 94% 29.95 in 10.0 mi NW 6.9 mph - N/A   Mostly Cloudy
5:55 AM 64.6 °F 62.6 °F 93% 29.95 in 10.0 mi NW 6.9 mph - N/A   Mostly Cloudy
6:55 AM 65.3 °F 63.3 °F 93% 29.97 in 10.0 mi NW 8.1 mph - N/A   Overcast
7:55 AM 66.0 °F 63.3 °F 91% 30.00 in 10.0 mi NW 5.8 mph - N/A   Overcast
8:55 AM 68.5 °F 64.6 °F 87% 30.01 in 10.0 mi NNW 9.2 mph - N/A   Overcast
9:00 AM 68.0 °F 64.4 °F 88% 30.01 in 10.0 mi NW 11.5 mph - N/A   Overcast
9:36 AM 68.0 °F 64.4 °F 88% 30.01 in 10.0 mi NW 10.4 mph - N/A   Overcast
9:42 AM 68.0 °F 64.4 °F 88% 30.01 in 10.0 mi NW 10.4 mph - N/A   Overcast
9:48 AM 68.0 °F 64.4 °F 88% 30.02 in 10.0 mi NNW 11.5 mph - N/A   Overcast
9:55 AM 68.4 °F 63.9 °F 85% 30.01 in 10.0 mi NNW 13.8 mph 18.4 mph N/A   Overcast
10:55 AM 71.2 °F 63.3 °F 76% 30.01 in 10.0 mi North 9.2 mph - N/A   Overcast
10:57 AM 71.6 °F 62.6 °F 73% 30.01 in 10.0 mi NW 8.1 mph - N/A   Overcast
11:04 AM 69.8 °F 64.4 °F 83% 30.01 in 10.0 mi NW 11.5 mph - N/A   Overcast
11:55 AM 70.5 °F 62.2 °F 75% 30.00 in 10.0 mi North 10.4 mph - N/A   Overcast
12:55 PM 73.2 °F 61.3 °F 66% 29.97 in 10.0 mi North 8.1 mph - N/A   Overcast
1:55 PM 72.1 °F 61.7 °F 70% 29.95 in 10.0 mi NNE 9.2 mph - N/A   Overcast
2:55 PM 71.6 °F 61.7 °F 71% 29.94 in 10.0 mi NE 12.7 mph 19.6 mph N/A   Overcast
3:55 PM 70.7 °F 61.7 °F 73% 29.93 in 10.0 mi North 6.9 mph - N/A   Overcast
4:39 PM 69.8 °F 62.6 °F 78% 29.94 in 10.0 mi NNW 6.9 mph - N/A   Overcast
4:55 PM 70.2 °F 61.7 °F 74% 29.93 in 10.0 mi ENE 9.2 mph - N/A   Overcast
5:02 PM 69.8 °F 62.6 °F 78% 29.94 in 10.0 mi Variable 3.5 mph - N/A   Overcast
5:53 PM 69.8 °F 60.8 °F 73% 29.96 in 10.0 mi North 6.9 mph - N/A   Overcast
5:55 PM 69.6 °F 61.5 °F 75% 29.96 in 10.0 mi NNE 5.8 mph - N/A   Overcast
6:12 PM 69.8 °F 60.8 °F 73% 29.97 in 10.0 mi Calm Calm - N/A   Overcast
6:55 PM 68.4 °F 61.5 °F 79% 29.97 in 10.0 mi NNW 6.9 mph - N/A   Overcast
7:32 PM 68.0 °F 62.6 °F 83% 29.99 in 10.0 mi NNW 4.6 mph - N/A   Overcast
7:55 PM 67.1 °F 61.9 °F 83% 30.01 in 10.0 mi Calm Calm - N/A   Overcast
8:55 PM 67.1 °F 61.5 °F 82% 30.01 in 10.0 mi WNW 5.8 mph - N/A   Overcast
9:48 PM 68.0 °F 60.8 °F 78% 30.02 in 10.0 mi NW 4.6 mph - N/A   Overcast
9:55 PM 67.3 °F 61.7 °F 82% 30.03 in 10.0 mi NW 4.6 mph - N/A   Overcast
10:00 PM 68.0 °F 60.8 °F 78% 30.03 in 10.0 mi NNW 3.5 mph - N/A   Overcast
10:18 PM 66.2 °F 60.8 °F 83% 30.02 in 10.0 mi WNW 3.5 mph - N/A   Overcast
10:55 PM 66.4 °F 61.5 °F 84% 30.01 in 10.0 mi WNW 4.6 mph - N/A   Overcast
11:07 PM 66.2 °F 60.8 °F 83% 30.01 in 10.0 mi WNW 5.8 mph - N/A   Overcast
11:55 PM 66.2 °F 61.5 °F 85% 30.00 in 10.0 mi WNW 4.6 mph - N/A   Mostly Cloudy